P/2020 S5 ( PanSTARRS )

Japanese version
Home page
Updated on October 6, 2020

---------------------------------------------------------------------

* Profile

Discovery Date September 21, 2020
Magnitude 20.5 mag
Discoverer Pan-STARRS 1 telescope (Haleakala)

* Orbital Elements

Epoch 2020 Aug. 19.0 TT = JDT 2459080.5                                         
T 2020 Aug. 8.40686 TT                                  Rudenko                 
q   2.6792508            (2000.0)            P               Q                  
n   0.12095918     Peri.   53.01269     +0.97476053     -0.16660130             
a   4.0492709      Node   316.01561     +0.06376388     +0.84570100             
e   0.3383375      Incl.   12.35673     +0.21395344     +0.50698504             
P   8.15                                                                        
From 29 observations 2020 Aug. 26-Sept. 27, mean residual 0".3.                 

* Magnitudes Graph

        m1 = 14.5 + 5 log d + 10.0 log r

---------------------------------------------------------------------

The orbital elements are published on M.P.E.C. 2020-S240.
The magnitudes graphs are made with Comet for Windows.

---------------------------------------------------------------------

Copyright(C) Seiichi Yoshida (comet@aerith.net). All rights reserved.